^^
Grace C. Lehan Memorial Weather Station Historical Data
Daily Summary for May 17, 2022 Units:  Metric    English   Both
Daily Weekly Monthly Yearly
  High: Low: Average:
Temperature: 21.5 °C 11.8 °C 16.9 °C
Dew Point: 13.8 °C 9.8 °C 11.8 °C
Humidity: 90% 51.4% 74%
Wind Speed: 3.4km/h 0km/h 0.2km/h
Wind Gust: 9.7km/h - -
Wind- - ESE
Pressure: 1025.3 hPa 1019.9 hPa -
Precipitation: 0 mm    
 
 
Tabular Data for May 17, 2022
Time Temperature Dew Point Pressure Wind Wind Speed Wind Gust Humidity Rainfall Rate (Hourly) solar
00:04 14.9 °C 11.8 °C 1021.9 hPa Calm     81.8% 0 mm 0 W/m2
00:09 14.8 °C 11.8 °C 1021.9 hPa Calm     82% 0 mm 0 W/m2
00:14 14.7 °C 11.7 °C 1021.9 hPa Calm     82.1% 0 mm 0 W/m2
00:19 14.6 °C 11.8 °C 1021.9 hPa Calm     83% 0 mm 0 W/m2
00:24 14.5 °C 11.7 °C 1021.9 hPa Calm     83% 0 mm 0 W/m2
00:29 14.4 °C 11.6 °C 1021.9 hPa Calm     83.1% 0 mm 0 W/m2
00:34 14.3 °C 11.6 °C 1022.2 hPa Calm     84% 0 mm 0 W/m2
00:39 14.2 °C 11.6 °C 1022.2 hPa Calm     84.3% 0 mm 0 W/m2
00:44 14.1 °C 11.6 °C 1022.2 hPa Calm     85% 0 mm 0 W/m2
00:49 14 °C 11.5 °C 1022.2 hPa Calm     85% 0 mm 0 W/m2
00:54 13.9 °C 11.4 °C 1022.2 hPa Calm     85.1% 0 mm 0 W/m2
00:59 13.8 °C 11.6 °C 1022.2 hPa Calm   1.6 km/h 86% 0 mm 0 W/m2
01:04 13.8 °C 11.5 °C 1022.2 hPa Calm   1.6 km/h 86% 0 mm 0 W/m2
01:09 13.7 °C 11.4 °C 1022.2 hPa Calm     86% 0 mm 0 W/m2
01:14 13.7 °C 11.4 °C 1022.6 hPa Calm     86% 0 mm 0 W/m2
01:19 13.6 °C 11.4 °C 1022.2 hPa Calm     87% 0 mm 0 W/m2
01:24 13.5 °C 11.4 °C 1022.6 hPa Calm     87% 0 mm 0 W/m2
01:29 13.4 °C 11.3 °C 1022.6 hPa Calm     87% 0 mm 0 W/m2
01:34 13.4 °C 11.3 °C 1022.2 hPa Calm     87% 0 mm 0 W/m2
01:39 13.3 °C 11.2 °C 1022.6 hPa Calm     87% 0 mm 0 W/m2
01:44 13.3 °C 11.2 °C 1022.6 hPa Calm     87% 0 mm 0 W/m2
01:49 13.3 °C 11.2 °C 1022.6 hPa Calm     87% 0 mm 0 W/m2
01:54 13.3 °C 11.2 °C 1022.6 hPa Calm     87% 0 mm 0 W/m2
01:59 13.3 °C 11.2 °C 1022.6 hPa Calm     87% 0 mm 0 W/m2
02:04 13.3 °C 11.2 °C 1022.6 hPa Calm     87% 0 mm 0 W/m2
02:09 13.2 °C 11.1 °C 1022.2 hPa Calm     87% 0 mm 0 W/m2
02:14 13.2 °C 11.1 °C 1022.2 hPa Calm     87% 0 mm 0 W/m2
02:19 13.2 °C 11.1 °C 1022.2 hPa Calm     87% 0 mm 0 W/m2
02:24 13.2 °C 11.1 °C 1022.2 hPa Calm     87% 0 mm 0 W/m2
02:29 13.2 °C 11.1 °C 1022.2 hPa Calm     87% 0 mm 0 W/m2
02:34 13.3 °C 11.3 °C 1022.6 hPa Calm   1.6 km/h 87.7% 0 mm 0 W/m2
02:39 13.3 °C 11.2 °C 1022.6 hPa Calm   1.6 km/h 87% 0 mm 0 W/m2
02:44 13.3 °C 11.2 °C 1022.6 hPa Calm   1.6 km/h 87% 0 mm 0 W/m2
02:49 13.3 °C 11.2 °C 1022.6 hPa Calm   1.6 km/h 87% 0 mm 0 W/m2
02:54 13.2 °C 11.1 °C 1022.9 hPa Calm   1.6 km/h 87% 0 mm 0 W/m2
02:59 13.2 °C 11.1 °C 1022.9 hPa Calm   1.6 km/h 87% 0 mm 0 W/m2
03:04 13.2 °C 11.1 °C 1022.9 hPa Calm   1.6 km/h 87% 0 mm 0 W/m2
03:09 13.2 °C 11.1 °C 1022.9 hPa Calm     87% 0 mm 0 W/m2
03:14 13.1 °C 11 °C 1022.9 hPa Calm     87% 0 mm 0 W/m2
03:19 13.1 °C 10.9 °C 1022.9 hPa Calm     87% 0 mm 0 W/m2
03:24 13 °C 10.9 °C 1022.9 hPa Calm     87% 0 mm 0 W/m2
03:29 12.9 °C 10.9 °C 1022.9 hPa Calm     87.1% 0 mm 0 W/m2
03:34 12.9 °C 11 °C 1022.9 hPa Calm     88% 0 mm 0 W/m2
03:39 12.9 °C 10.9 °C 1022.9 hPa WNW 0.2 km/h 3.2 km/h 88% 0 mm 0 W/m2
03:44 12.8 °C 10.9 °C 1022.9 hPa Calm   3.2 km/h 88% 0 mm 0 W/m2
03:49 12.8 °C 10.8 °C 1022.9 hPa Calm   3.2 km/h 88% 0 mm 0 W/m2
03:54 12.7 °C 10.8 °C 1022.9 hPa Calm   3.2 km/h 88% 0 mm 0 W/m2
03:58 12.7 °C 10.7 °C 1022.9 hPa Calm   3.2 km/h 87.7% 0 mm 0 W/m2
04:04 12.6 °C 10.7 °C 1022.9 hPa Calm     88% 0 mm 0 W/m2
04:09 12.6 °C 10.7 °C 1023.2 hPa Calm     88% 0 mm 0 W/m2
04:14 12.6 °C 10.6 °C 1023.2 hPa Calm     88% 0 mm 0 W/m2
04:19 12.6 °C 10.6 °C 1023.2 hPa Calm     88% 0 mm 0 W/m2
04:24 12.5 °C 10.6 °C 1023.2 hPa Calm     88% 0 mm 0 W/m2
04:29 12.4 °C 10.5 °C 1023.6 hPa Calm     88% 0 mm 0 W/m2
04:34 12.4 °C 10.5 °C 1023.6 hPa Calm     88% 0 mm 0 W/m2
04:39 12.4 °C 10.4 °C 1023.6 hPa Calm     88% 0 mm 0 W/m2
04:44 12.3 °C 10.4 °C 1023.6 hPa Calm     88% 0 mm 0 W/m2
04:49 12.3 °C 10.3 °C 1023.6 hPa Calm     87.4% 0 mm 0 W/m2
04:54 12.3 °C 10.2 °C 1023.6 hPa Calm     87.3% 0 mm 0 W/m2
04:59 12.2 °C 10.3 °C 1023.9 hPa Calm     88% 0 mm 0 W/m2
05:04 12.2 °C 10.2 °C 1023.9 hPa Calm     88% 0 mm 0 W/m2
05:09 12.1 °C 10.2 °C 1023.9 hPa Calm     88% 0 mm 0 W/m2
05:14 12.1 °C 10.1 °C 1023.9 hPa Calm     88% 0 mm 0 W/m2
05:19 12 °C 10.1 °C 1023.9 hPa Calm     88% 0 mm 0 W/m2
05:24 12 °C 10.1 °C 1023.9 hPa Calm     88% 0 mm 0 W/m2
05:29 12 °C 10.2 °C 1023.9 hPa Calm     88.7% 0 mm 0 W/m2
05:34 11.9 °C 10.2 °C 1023.9 hPa Calm     89% 0 mm 0 W/m2
05:39 11.9 °C 10.2 °C 1023.9 hPa Calm     89% 0 mm 0 W/m2
05:44 11.9 °C 10.2 °C 1023.9 hPa Calm     89% 0 mm 0 W/m2
05:49 11.9 °C 10.2 °C 1023.9 hPa Calm     89% 0 mm 0 W/m2
05:53 11.9 °C 10.2 °C 1023.9 hPa Calm     89% 0 mm 0 W/m2
05:59 11.9 °C 10.2 °C 1023.9 hPa Calm     89% 0 mm 0 W/m2
06:04 11.9 °C 10.2 °C 1023.9 hPa Calm     89.1% 0 mm 0 W/m2
06:09 11.8 °C 10.1 °C 1023.9 hPa Calm     89.1% 0 mm 0 W/m2
06:14 11.8 °C 10.1 °C 1023.9 hPa Calm     89% 0 mm 0 W/m2
06:19 11.8 °C 10.2 °C 1024.3 hPa Calm     89.7% 0 mm 0 W/m2
06:24 11.8 °C 10.3 °C 1024.3 hPa Calm     90% 0 mm 0 W/m2
06:29 11.8 °C 10.3 °C 1024.3 hPa Calm     90% 0 mm 0 W/m2
06:34 11.8 °C 10.3 °C 1024.3 hPa Calm     90% 0 mm 7 W/m2
06:39 11.8 °C 10.3 °C 1024.3 hPa Calm     90% 0 mm 11 W/m2
06:44 11.8 °C 10.3 °C 1024.3 hPa Calm     90% 0 mm 14 W/m2
06:49 11.8 °C 10.3 °C 1024.3 hPa Calm     90% 0 mm 18 W/m2
06:54 11.8 °C 10.3 °C 1024.3 hPa Calm     90% 0 mm 21 W/m2
06:59 11.9 °C 10.3 °C 1024.3 hPa Calm     90% 0 mm 25 W/m2
07:04 11.9 °C 10.3 °C 1024.6 hPa Calm     90% 0 mm 30 W/m2
07:09 11.9 °C 10.3 °C 1024.6 hPa Calm     90% 0 mm 39 W/m2
07:14 11.9 °C 10.4 °C 1024.6 hPa Calm     90% 0 mm 46 W/m2
07:19 12 °C 10.4 °C 1024.6 hPa Calm     90% 0 mm 53 W/m2
07:24 12.1 °C 10.6 °C 1024.6 hPa WNW 0.3 km/h 4.8 km/h 90% 0 mm 54 W/m2
07:29 12.2 °C 10.6 °C 1024.9 hPa Calm   4.8 km/h 89.9% 0 mm 51 W/m2
07:34 12.3 °C 10.6 °C 1024.9 hPa Calm   4.8 km/h 89% 0 mm 62 W/m2
07:39 12.4 °C 10.6 °C 1024.9 hPa NW 0.5 km/h 8 km/h 89% 0 mm 84 W/m2
07:44 12.5 °C 10.7 °C 1024.9 hPa NW 0.3 km/h 8 km/h 88.6% 0 mm 98 W/m2
07:49 12.7 °C 10.7 °C 1024.9 hPa NW 0.3 km/h 8 km/h 88% 0 mm 107 W/m2
07:54 12.8 °C 10.7 °C 1024.9 hPa Calm   8 km/h 87% 0 mm 104 W/m2
07:59 12.9 °C 10.6 °C 1024.9 hPa NNW 0.2 km/h 8 km/h 86% 0 mm 98 W/m2
08:00 13 °C 10.7 °C 1024.9 hPa Calm   8 km/h 86% 0 mm 95 W/m2
08:09 13.2 °C 10.7 °C 1024.6 hPa North 0.5 km/h 6.4 km/h 85% 0 mm 109 W/m2
08:14 13.3 °C 10.7 °C 1024.9 hPa Calm   6.4 km/h 84% 0 mm 102 W/m2
08:19 13.4 °C 10.8 °C 1024.9 hPa Calm   6.4 km/h 84% 0 mm 98 W/m2
08:24 13.5 °C 10.8 °C 1024.9 hPa Calm   6.4 km/h 83.8% 0 mm 113 W/m2
08:29 13.7 °C 10.8 °C 1024.9 hPa Calm   6.4 km/h 83% 0 mm 156 W/m2
08:34 13.8 °C 10.8 °C 1024.9 hPa Calm   6.4 km/h 82.3% 0 mm 156 W/m2
08:39 13.8 °C 10.8 °C 1024.9 hPa North 0.3 km/h 6.4 km/h 82% 0 mm 88 W/m2
08:44 13.9 °C 10.8 °C 1024.9 hPa North 0.5 km/h 8 km/h 81.2% 0 mm 90 W/m2
08:49 14 °C 10.7 °C 1024.9 hPa NNE 0.5 km/h 8 km/h 80.8% 0 mm 186 W/m2
08:54 14.1 °C 10.7 °C 1025.3 hPa NNE 0.5 km/h 8 km/h 80% 0 mm 403 W/m2
08:59 14.2 °C 10.7 °C 1025.3 hPa NNE 0.6 km/h 8 km/h 79.6% 0 mm 417 W/m2
09:04 14.6 °C 10.9 °C 1024.9 hPa NE 0.6 km/h 9.7 km/h 78.6% 0 mm 436 W/m2
09:09 14.9 °C 10.9 °C 1025.3 hPa NE 0.8 km/h 9.7 km/h 76.5% 0 mm 448 W/m2
09:14 15.4 °C 11.1 °C 1025.3 hPa North 0.3 km/h 9.7 km/h 75.6% 0 mm 464 W/m2
09:19 15.9 °C 11.4 °C 1024.9 hPa NW 0.2 km/h 9.7 km/h 75% 0 mm 482 W/m2
09:24 16.4 °C 11.2 °C 1024.9 hPa ENE 1.1 km/h 9.7 km/h 71.2% 0 mm 499 W/m2
09:29 16.8 °C 11.5 °C 1024.9 hPa Calm   9.7 km/h 70.9% 0 mm 508 W/m2
09:34 17.3 °C 11.7 °C 1024.9 hPa East 0.5 km/h 9.7 km/h 69.7% 0 mm 520 W/m2
09:39 17.7 °C 11.4 °C 1024.9 hPa East 0.6 km/h 8 km/h 66.6% 0 mm 536 W/m2
09:44 17.9 °C 11.4 °C 1024.9 hPa ENE 1.8 km/h 8 km/h 65.8% 0 mm 547 W/m2
09:49 18.1 °C 11.2 °C 1024.9 hPa Calm   8 km/h 64.2% 0 mm 561 W/m2
09:54 18.3 °C 11.1 °C 1024.6 hPa ENE 0.5 km/h 8 km/h 62.5% 0 mm 571 W/m2
09:59 18.6 °C 11.3 °C 1024.6 hPa ENE 0.2 km/h 8 km/h 62.2% 0 mm 580 W/m2
10:04 18.9 °C 11.6 °C 1024.9 hPa ENE 0.2 km/h 8 km/h 62.3% 0 mm 591 W/m2
10:09 19.2 °C 11.5 °C 1024.6 hPa ENE 0.8 km/h 4.8 km/h 60.9% 0 mm 601 W/m2
10:14 19.3 °C 11.2 °C 1024.9 hPa ENE 1.1 km/h 4.8 km/h 59.1% 0 mm 612 W/m2
10:19 19.3 °C 11.3 °C 1024.9 hPa ENE 0.3 km/h 4.8 km/h 59.8% 0 mm 622 W/m2
10:24 19.4 °C 11.2 °C 1024.9 hPa ENE 0.2 km/h 4.8 km/h 59.2% 0 mm 661 W/m2
10:29 19.6 °C 11.3 °C 1024.9 hPa ENE 0.3 km/h 4.8 km/h 58.8% 0 mm 694 W/m2
10:34 19.7 °C 11.3 °C 1024.9 hPa ENE 0.2 km/h 4.8 km/h 58.2% 0 mm 698 W/m2
10:39 20 °C 11.7 °C 1024.9 hPa ENE 0.2 km/h 4.8 km/h 58.9% 0 mm 663 W/m2
10:44 20.2 °C 11.4 °C 1024.9 hPa ENE 0.5 km/h 4.8 km/h 57% 0 mm 673 W/m2
10:49 20.1 °C 10.8 °C 1024.9 hPa ENE 0.5 km/h 6.4 km/h 55.1% 0 mm 686 W/m2
10:54 19.9 °C 11 °C 1024.9 hPa ENE 0.2 km/h 6.4 km/h 56.4% 0 mm 693 W/m2
10:59 19.9 °C 10.8 °C 1024.9 hPa ENE 0.6 km/h 6.4 km/h 55.5% 0 mm 700 W/m2
11:04 20.1 °C 10.9 °C 1024.9 hPa ENE 0.2 km/h 6.4 km/h 55.2% 0 mm 712 W/m2
11:09 20.3 °C 10.4 °C 1024.9 hPa Calm   3.2 km/h 52.8% 0 mm 722 W/m2
11:14 20.4 °C 10.9 °C 1024.9 hPa ENE 1.1 km/h 6.4 km/h 54.5% 0 mm 729 W/m2
11:19 20.5 °C 10.2 °C 1024.9 hPa ENE 0.2 km/h 6.4 km/h 51.5% 0 mm 737 W/m2
11:24 20.3 °C 10 °C 1024.9 hPa East 0.2 km/h 6.4 km/h 51.7% 0 mm 742 W/m2
11:29 20.1 °C 9.8 °C 1024.6 hPa ENE 0.8 km/h 6.4 km/h 51.6% 0 mm 744 W/m2
11:34 20.2 °C 10.3 °C 1024.6 hPa ENE 0.2 km/h 6.4 km/h 52.8% 0 mm 703 W/m2
11:39 20.4 °C 10.4 °C 1024.6 hPa ENE 0.3 km/h 4.8 km/h 52.8% 0 mm 200 W/m2
11:43 20.4 °C 10.6 °C 1024.6 hPa ENE 3.4 km/h 8 km/h 53% 0 mm 105 W/m2
11:49 20.3 °C 10 °C 1024.6 hPa ENE 0.6 km/h 8 km/h 51.4% 0 mm 123 W/m2
11:54 20.1 °C 10.2 °C 1024.6 hPa Calm   8 km/h 52.6% 0 mm 97 W/m2
11:59 20.1 °C 10.5 °C 1024.3 hPa ENE 0.2 km/h 8 km/h 54.2% 0 mm 114 W/m2
12:00 20 °C 11.2 °C 1024.3 hPa Calm   8 km/h 57% 0 mm 81 W/m2
12:09 20.1 °C 10.8 °C 1024.3 hPa Calm     55% 0 mm 90 W/m2
12:14 20.1 °C 10.9 °C 1024.3 hPa ENE 0.2 km/h 1.6 km/h 55.6% 0 mm 125 W/m2
12:19 20.1 °C 11 °C 1024.3 hPa ENE 0.5 km/h 6.4 km/h 55.7% 0 mm 301 W/m2
12:24 20.2 °C 11.1 °C 1024.3 hPa Calm   6.4 km/h 56% 0 mm 308 W/m2
12:29 20.3 °C 10.9 °C 1024.3 hPa Calm   6.4 km/h 54.9% 0 mm 352 W/m2
12:34 20.5 °C 11 °C 1024.3 hPa Calm   6.4 km/h 54.5% 0 mm 362 W/m2
12:39 20.6 °C 11.7 °C 1024.3 hPa NE 0.5 km/h 6.4 km/h 56.7% 0 mm 366 W/m2
12:44 20.8 °C 11.7 °C 1024.3 hPa Calm   6.4 km/h 56.1% 0 mm 366 W/m2
12:49 20.8 °C 11.4 °C 1023.9 hPa Calm   6.4 km/h 55% 0 mm 350 W/m2
12:54 20.8 °C 11.7 °C 1023.9 hPa Calm   6.4 km/h 55.8% 0 mm 339 W/m2
12:59 20.7 °C 10.9 °C 1023.9 hPa Calm   6.4 km/h 53.5% 0 mm 316 W/m2
13:04 20.6 °C 11.3 °C 1023.9 hPa Calm   6.4 km/h 55.5% 0 mm 341 W/m2
13:09 20.5 °C 11.6 °C 1023.9 hPa Calm     56.6% 0 mm 338 W/m2
13:14 20.6 °C 11.8 °C 1023.9 hPa Calm     57.2% 0 mm 357 W/m2
13:19 20.7 °C 11.6 °C 1023.9 hPa Calm     56.1% 0 mm 373 W/m2
13:24 20.8 °C 11.5 °C 1023.9 hPa Calm     55.3% 0 mm 387 W/m2
13:29 20.8 °C 11.4 °C 1023.6 hPa Calm     55% 0 mm 387 W/m2
13:34 20.8 °C 12.1 °C 1023.6 hPa Calm     57.1% 0 mm 355 W/m2
13:39 20.9 °C 12.1 °C 1023.6 hPa Calm   3.2 km/h 56.8% 0 mm 338 W/m2
13:44 21 °C 12.1 °C 1023.6 hPa North 0.3 km/h 3.2 km/h 56.7% 0 mm 343 W/m2
13:49 21.1 °C 12.2 °C 1023.2 hPa Calm   3.2 km/h 56.8% 0 mm 355 W/m2
13:54 21.3 °C 12.7 °C 1023.2 hPa Calm   3.2 km/h 58% 0 mm 371 W/m2
13:59 21.4 °C 12.8 °C 1023.2 hPa Calm   3.2 km/h 58.2% 0 mm 362 W/m2
14:04 21.3 °C 12.1 °C 1023.2 hPa Calm   3.2 km/h 55.5% 0 mm 353 W/m2
14:09 21.3 °C 12.7 °C 1023.2 hPa Calm     58% 0 mm 339 W/m2
14:14 21.4 °C 12.8 °C 1023.2 hPa Calm   1.6 km/h 57.9% 0 mm 329 W/m2
14:19 21.4 °C 12.4 °C 1023.2 hPa Calm   1.6 km/h 56.3% 0 mm 299 W/m2
14:24 21.4 °C 12.4 °C 1022.9 hPa Calm   1.6 km/h 56.4% 0 mm 285 W/m2
14:29 21.4 °C 12.7 °C 1022.9 hPa North 0.2 km/h 4.8 km/h 57.5% 0 mm 287 W/m2
14:34 21.4 °C 12.6 °C 1022.9 hPa Calm   4.8 km/h 56.9% 0 mm 279 W/m2
14:39 21.5 °C 12.6 °C 1022.9 hPa Calm     56.7% 0 mm 274 W/m2
14:44 21.4 °C 12.2 °C 1022.9 hPa Calm     55.6% 0 mm 276 W/m2
14:49 21.3 °C 12.3 °C 1022.9 hPa Calm     56.1% 0 mm 271 W/m2
14:54 21.2 °C 12.4 °C 1022.6 hPa Calm     57.1% 0 mm 246 W/m2
14:59 21 °C 12.2 °C 1022.6 hPa Calm     56.9% 0 mm 236 W/m2
15:04 20.9 °C 12.3 °C 1022.6 hPa Calm   3.2 km/h 58.1% 0 mm 244 W/m2
15:09 20.8 °C 12.4 °C 1022.6 hPa Calm   3.2 km/h 58.6% 0 mm 244 W/m2
15:14 20.8 °C 12.3 °C 1022.6 hPa Calm   3.2 km/h 58.4% 0 mm 227 W/m2
15:19 20.7 °C 12.6 °C 1022.6 hPa Calm   3.2 km/h 59.5% 0 mm 213 W/m2
15:24 20.7 °C 12.7 °C 1022.2 hPa Calm   3.2 km/h 60.3% 0 mm 206 W/m2
15:29 20.7 °C 12.7 °C 1022.2 hPa Calm   3.2 km/h 60.2% 0 mm 206 W/m2
15:34 20.8 °C 13.2 °C 1022.2 hPa Calm   3.2 km/h 61.8% 0 mm 199 W/m2
15:39 20.8 °C 12.9 °C 1022.2 hPa Calm     60.3% 0 mm 190 W/m2
15:44 20.9 °C 13.2 °C 1022.2 hPa Calm   1.6 km/h 61.5% 0 mm 186 W/m2
15:49 20.9 °C 13.2 °C 1022.2 hPa Calm   1.6 km/h 61.1% 0 mm 185 W/m2
15:54 21 °C 13.2 °C 1022.2 hPa Calm   1.6 km/h 61% 0 mm 192 W/m2
15:59 21.1 °C 13.5 °C 1022.2 hPa Calm   1.6 km/h 61.9% 0 mm 186 W/m2
16:00 21.1 °C 13.6 °C 1022.2 hPa Calm   1.6 km/h 62% 0 mm 186 W/m2
16:09 21.1 °C 13.4 °C 1022.2 hPa North 0.3 km/h 3.2 km/h 61.6% 0 mm 220 W/m2
16:14 21.1 °C 13.2 °C 1022.2 hPa Calm   3.2 km/h 60.6% 0 mm 202 W/m2
16:19 21.1 °C 13.5 °C 1022.2 hPa Calm   3.2 km/h 61.8% 0 mm 192 W/m2
16:24 21.1 °C 13.4 °C 1021.9 hPa Calm   3.2 km/h 61.4% 0 mm 169 W/m2
16:29 21.1 °C 13.4 °C 1021.9 hPa Calm   3.2 km/h 61.5% 0 mm 151 W/m2
16:34 21.1 °C 13.6 °C 1021.9 hPa Calm   3.2 km/h 62.5% 0 mm 151 W/m2
16:39 21.1 °C 13.6 °C 1021.9 hPa Calm     62.2% 0 mm 183 W/m2
16:44 21.1 °C 13.8 °C 1021.9 hPa Calm     63.1% 0 mm 165 W/m2
16:49 21.1 °C 13.4 °C 1021.9 hPa Calm     61.6% 0 mm 163 W/m2
16:54 21.1 °C 13.2 °C 1021.6 hPa Calm   3.2 km/h 60.5% 0 mm 139 W/m2
16:59 21.1 °C 13 °C 1021.6 hPa Calm   3.2 km/h 60% 0 mm 123 W/m2
17:04 21.1 °C 13.6 °C 1021.6 hPa Calm   3.2 km/h 62% 0 mm 111 W/m2
17:09 21.2 °C 13.4 °C 1021.6 hPa Calm     61.2% 0 mm 86 W/m2
17:14 21.2 °C 13.3 °C 1021.6 hPa Calm     61% 0 mm 62 W/m2
17:19 21.1 °C 13.2 °C 1021.6 hPa ENE 0.5 km/h 6.4 km/h 60.7% 0 mm 56 W/m2
17:24 20.9 °C 13.3 °C 1021.6 hPa Calm   6.4 km/h 61.6% 0 mm 49 W/m2
17:29 20.9 °C 13.4 °C 1021.2 hPa Calm   6.4 km/h 62.6% 0 mm 49 W/m2
17:34 20.8 °C 13.5 °C 1021.2 hPa Calm   6.4 km/h 63% 0 mm 47 W/m2
17:39 20.8 °C 13.6 °C 1021.2 hPa Calm     63.5% 0 mm 46 W/m2
17:44 20.7 °C 13.7 °C 1021.2 hPa ESE 0.2 km/h 3.2 km/h 64% 0 mm 44 W/m2
17:48 20.7 °C 13.7 °C 1021.2 hPa Calm   3.2 km/h 64.2% 0 mm 40 W/m2
17:53 20.6 °C 13.8 °C 1021.2 hPa Calm   3.2 km/h 65.2% 0 mm 39 W/m2
17:59 20.6 °C 13.8 °C 1021.2 hPa ESE 0.3 km/h 3.2 km/h 65.1% 0 mm 35 W/m2
18:04 20.5 °C 13.7 °C 1020.9 hPa ESE 0.2 km/h 3.2 km/h 64.8% 0 mm 32 W/m2
18:09 20.4 °C 13.6 °C 1020.9 hPa ESE 0.2 km/h 3.2 km/h 64.6% 0 mm 30 W/m2
18:14 20.4 °C 13.4 °C 1021.2 hPa Calm   3.2 km/h 64.2% 0 mm 26 W/m2
18:19 20.3 °C 13.4 °C 1021.2 hPa Calm   3.2 km/h 64.5% 0 mm 25 W/m2
18:24 20.3 °C 13.3 °C 1020.9 hPa Calm   3.2 km/h 64% 0 mm 21 W/m2
18:29 20.2 °C 13.3 °C 1021.2 hPa Calm   3.2 km/h 64.2% 0 mm 18 W/m2
18:34 20.2 °C 13.4 °C 1021.2 hPa Calm   3.2 km/h 65% 0 mm 14 W/m2
18:39 20.1 °C 13.3 °C 1021.2 hPa Calm     65.2% 0 mm 11 W/m2
18:44 20 °C 13.4 °C 1021.2 hPa Calm     65.7% 0 mm 9 W/m2
18:49 19.9 °C 13.4 °C 1021.2 hPa Calm     66% 0 mm 5 W/m2
18:54 19.8 °C 13.3 °C 1021.2 hPa Calm   1.6 km/h 66% 0 mm 0 W/m2
18:59 19.7 °C 13.4 °C 1021.2 hPa Calm   1.6 km/h 67% 0 mm 0 W/m2
19:04 19.6 °C 13.3 °C 1020.9 hPa Calm   1.6 km/h 67% 0 mm 0 W/m2
19:09 19.5 °C 13.4 °C 1021.2 hPa Calm     67.9% 0 mm 0 W/m2
19:14 19.4 °C 13.3 °C 1020.9 hPa Calm     68% 0 mm 0 W/m2
19:19 19.3 °C 13.4 °C 1020.9 hPa Calm     68.9% 0 mm 0 W/m2
19:24 19.2 °C 13.6 °C 1020.9 hPa Calm     69.6% 0 mm 0 W/m2
19:29 19.1 °C 13.6 °C 1020.9 hPa Calm     70% 0 mm 0 W/m2
19:34 19 °C 13.6 °C 1020.9 hPa Calm     70.5% 0 mm 0 W/m2
19:39 18.9 °C 13.6 °C 1021.2 hPa Calm     71% 0 mm 0 W/m2
19:44 18.8 °C 13.6 °C 1021.2 hPa Calm   1.6 km/h 71.9% 0 mm 0 W/m2
19:49 18.7 °C 13.5 °C 1021.2 hPa Calm   1.6 km/h 72% 0 mm 0 W/m2
19:54 18.5 °C 13.5 °C 1021.2 hPa Calm   1.6 km/h 72.7% 0 mm 0 W/m2
19:59 18.4 °C 13.5 °C 1021.2 hPa Calm   1.6 km/h 73.2% 0 mm 0 W/m2
20:00 18.3 °C 13.6 °C 1021.2 hPa Calm   1.6 km/h 74% 0 mm 0 W/m2
20:09 18.1 °C 13.6 °C 1021.2 hPa Calm     74.9% 0 mm 0 W/m2
20:14 18 °C 13.6 °C 1021.2 hPa Calm     75% 0 mm 0 W/m2
20:19 17.9 °C 13.6 °C 1021.2 hPa Calm     75.9% 0 mm 0 W/m2
20:24 17.8 °C 13.6 °C 1021.2 hPa Calm     76% 0 mm 0 W/m2
20:29 17.7 °C 13.6 °C 1021.2 hPa Calm     77% 0 mm 0 W/m2
20:34 17.6 °C 13.6 °C 1021.2 hPa Calm     77.2% 0 mm 0 W/m2
20:39 17.6 °C 13.7 °C 1021.2 hPa Calm     78% 0 mm 0 W/m2
20:44 17.4 °C 13.6 °C 1021.2 hPa Calm     78% 0 mm 0 W/m2
20:49 17.3 °C 13.5 °C 1021.2 hPa Calm     78% 0 mm 0 W/m2
20:54 17.3 °C 13.5 °C 1021.2 hPa Calm     78.5% 0 mm 0 W/m2
20:59 17.2 °C 13.6 °C 1021.2 hPa Calm     79.1% 0 mm 0 W/m2
21:04 17.1 °C 13.7 °C 1021.2 hPa Calm     80% 0 mm 0 W/m2
21:09 17.1 °C 13.6 °C 1021.2 hPa Calm     80% 0 mm 0 W/m2
21:14 17 °C 13.5 °C 1020.9 hPa Calm     80% 0 mm 0 W/m2
21:19 16.9 °C 13.4 °C 1020.9 hPa Calm     80% 0 mm 0 W/m2
21:24 16.8 °C 13.6 °C 1020.9 hPa Calm     80.9% 0 mm 0 W/m2
21:29 16.7 °C 13.5 °C 1020.9 hPa Calm     81% 0 mm 0 W/m2
21:34 16.7 °C 13.4 °C 1020.9 hPa Calm     81% 0 mm 0 W/m2
21:39 16.6 °C 13.3 °C 1020.9 hPa Calm     81.2% 0 mm 0 W/m2
21:44 16.5 °C 13.4 °C 1020.9 hPa Calm     82% 0 mm 0 W/m2
21:49 16.4 °C 13.3 °C 1020.9 hPa Calm     82% 0 mm 0 W/m2
21:54 16.3 °C 13.3 °C 1020.9 hPa Calm     82.3% 0 mm 0 W/m2
21:59 16.2 °C 13.3 °C 1020.9 hPa Calm     83% 0 mm 0 W/m2
22:04 16.1 °C 13.2 °C 1020.5 hPa Calm     83% 0 mm 0 W/m2
22:09 16 °C 13.3 °C 1020.5 hPa Calm     83.7% 0 mm 0 W/m2
22:14 15.9 °C 13.3 °C 1020.5 hPa Calm     84.4% 0 mm 0 W/m2
22:19 15.8 °C 13.3 °C 1020.5 hPa Calm     84.9% 0 mm 0 W/m2
22:20 15.8 °C 13.3 °C 1020.5 hPa Calm     85% 0 mm 0 W/m2
22:30 15.7 °C 13.2 °C 1020.5 hPa Calm     85% 0 mm 0 W/m2
23:00 15.4 °C 13.2 °C 1020.2 hPa Calm     87% 0 mm 0 W/m2
23:30 15.3 °C 13.3 °C 1019.9 hPa Calm     88% 0 mm 0 W/m2
Hartford County Weather
Compliments of Weather Underground - 2 mb